Content
SEND FEEDBACK

Daily
Averages
Monthly
Summary
United States of America

MORTIMER, NORTH CAROLINA


Home > North America > United States > North Carolina
Elevation: 46 meters     Latitude: 35 59N     Longitude: 081 47W

WEATHER
 
SELECT A DAY
Number of Records: 352,047;   Date Range: 3/8/99 - 9/29/14
 
SHARE

PRINT THIS DATA

[ ← Previous Day ]
WEATHER ALMANAC - 31 JANUARY, 2013
[ Next Day → ]
[ °F ]   °C
Weather ElementAverageHighLow
Temperature4.6 °C9.7 °C (12:35 am)-0.7 °C (10:15 pm)
Dewpoint-5.4 °C8 °C (12:55 am)-8.8 °C (4:15 pm)
Humidity50 %90 % (12:55 am)36 % (3:35 pm)
Barometer1012.2 hPa1016.9 hPa (7:35 pm)1001 hPa (12:35 am)
Wind Speed18.3 km/h40.7 km/h (2:35 pm)
Wind Gust57.5 km/h (2:35 pm)
Weather ElementAverage
Visibility16.1 km
Wind DirectionW (266.2 °)

Weather ElementTotal
Precipitation---
Heating Degree Days13.8 (Base 18.3)
Averaged from 69 records on 31 January, 2013
WEATHER CONDITIONS BREAKOUT
WIND DIRECTION BREAKOUT
WEATHER BY HOUR - 31 JANUARY, 2013
[ °F ]   °C
Local TimeTemperatureDewpointHumidityBarometerVisibilityWind DirectionWind SpeedGust SpeedPrecipitationEventsConditions
12:35 AM9.7 °C7.8 °C88 %1001 hPa16.1 kmWSW (250°)13 km/hScattered Clouds
12:55 AM9.6 °C8 °C90 %1001 hPa16.1 kmWSW (240°)16.7 km/hMostly Cloudy
1:15 AM9.5 °C6.8 °C83 %1002 hPa16.1 kmWNW (290°)25.9 km/h37 km/hRainLight Rain
1:35 AM9.1 °C2.5 °C64 %1002.4 hPa16.1 kmWest (270°)14.8 km/h31.5 km/hOvercast
1:55 AM8.5 °C1.8 °C63 %1002.7 hPa16.1 kmWest (280°)14.8 km/h31.5 km/hScattered Clouds
2:15 AM8 °C0.8 °C61 %1003 hPa16.1 kmWest (270°)20.4 km/h48.1 km/hScattered Clouds
2:35 AM7.5 °C-0.5 °C57 %1003.4 hPa16.1 kmWest (270°)16.7 km/h42.6 km/hScattered Clouds
2:55 AM7.2 °C-1 °C56 %1004.1 hPa16.1 kmWest (270°)27.8 km/h44.4 km/hClear
3:15 AM6.5 °C-0.3 °C62 %1004.7 hPa16.1 kmWest (280°)22.2 km/h33.3 km/hScattered Clouds
3:35 AM6.2 °C-1.8 °C57 %1005.1 hPa16.1 kmWest (260°)27.8 km/h33.3 km/hScattered Clouds
3:55 AM5.7 °C-1.1 °C62 %1006.1 hPa16.1 kmNW (310°)22.2 km/h31.5 km/hScattered Clouds
4:15 AM5 °C-1.1 °C65 %1006.4 hPa16.1 kmWest (270°)16.7 km/h29.6 km/hMostly Cloudy
4:35 AM4.5 °C-3.5 °C56 %1006.8 hPa16.1 kmWest (270°)25.9 km/h48.1 km/hScattered Clouds
4:55 AM4 °C-4.3 °C55 %1007.5 hPa16.1 kmWest (260°)24.1 km/h42.6 km/hClear
5:15 AM3.5 °C-3.7 °C60 %1008.5 hPa16.1 kmWNW (290°)24.1 km/h33.3 km/hScattered Clouds
5:35 AM3 °C-4.2 °C60 %1008.5 hPa16.1 kmWest (260°)16.7 km/h31.5 km/hScattered Clouds
5:55 AM2.8 °C-5 °C57 %1009.1 hPa16.1 kmWest (260°)14.8 km/hScattered Clouds
6:15 AM2.6 °C-4.9 °C58 %1009.5 hPa16.1 kmWSW (240°)13 km/hMostly Cloudy
6:35 AM2.5 °C-5.3 °C57 %1010.2 hPa16.1 kmWest (260°)13 km/h25.9 km/hMostly Cloudy
6:55 AM2.2 °C-6.1 °C55 %1010.5 hPa16.1 kmWest (270°)18.5 km/hMostly Cloudy
7:15 AM2.1 °C-6.9 °C52 %1011.2 hPa16.1 kmWest (270°)13 km/h27.8 km/hMostly Cloudy
7:35 AM2 °C-7.5 °C50 %1011.5 hPa16.1 kmWest (260°)20.4 km/h31.5 km/hScattered Clouds
7:55 AM2 °C-7.2 °C51 %1011.9 hPa16.1 kmWest (270°)20.4 km/h37 km/hClear
8:15 AM2.2 °C-7.1 °C51 %1012.2 hPa16.1 kmWest (270°)18.5 km/h27.8 km/hClear
8:35 AM2.7 °C-6.9 °C50 %1012.5 hPa16.1 kmWest (260°)18.5 km/hClear
8:55 AM3.1 °C-6.1 °C51 %1012.9 hPa16.1 kmWSW (240°)14.8 km/hScattered Clouds
9:15 AM3.1 °C-6.7 °C49 %1013.5 hPa16.1 kmWest (280°)18.5 km/h27.8 km/hScattered Clouds
9:35 AM3.6 °C-6.2 °C49 %1013.9 hPa16.1 kmWNW (290°)24.1 km/hScattered Clouds
9:55 AM3.6 °C-7 °C46 %1014.2 hPa16.1 kmWest (270°)24.1 km/h40.7 km/hScattered Clouds
10:15 AM3.8 °C-6.7 °C47 %1014.2 hPa16.1 kmWest (280°)20.4 km/h33.3 km/hClear
10:35 AM4 °C-6.9 °C45 %1014.6 hPa16.1 kmWNW (300°)16.7 km/hScattered Clouds
10:55 AM4.6 °C-6.7 °C44 %1014.9 hPa16.1 kmWNW (290°)24.1 km/h38.9 km/hScattered Clouds
11:15 AM4.4 °C-7 °C44 %1014.9 hPa16.1 kmWNW (290°)25.9 km/h37 km/hScattered Clouds
11:35 AM4.6 °C-7.2 °C43 %1014.6 hPa16.1 kmWNW (300°)18.5 km/h35.2 km/hScattered Clouds
11:55 AM4.8 °C-7.5 °C41 %1014.6 hPa16.1 kmWest (280°)22.2 km/h31.5 km/hScattered Clouds
12:15 PM5.4 °C-6.9 °C41 %1014.6 hPa16.1 kmWest (280°)18.5 km/h31.5 km/hClear
12:35 PM5.5 °C-6.2 °C43 %1014.2 hPa16.1 kmWNW (290°)25.9 km/h35.2 km/hClear
12:55 PM5.8 °C-6.2 °C42 %1013.9 hPa16.1 kmWest (280°)25.9 km/h37 km/hClear
1:15 PM5.9 °C-5.9 °C43 %1014.2 hPa16.1 kmWest (280°)22.2 km/h38.9 km/hClear
1:35 PM5.7 °C-6.9 °C40 %1014.2 hPa16.1 kmWest (280°)22.2 km/h42.6 km/hClear
1:55 PM5.9 °C-7.1 °C39 %1014.6 hPa16.1 kmWest (280°)27.8 km/h35.2 km/hClear
2:15 PM6 °C-7.2 °C39 %1014.6 hPa16.1 kmWest (260°)22.2 km/h44.4 km/hClear
2:35 PM6 °C-7.9 °C37 %1015.2 hPa16.1 kmWest (270°)40.7 km/h57.5 km/hClear
2:55 PM5.6 °C-7.7 °C38 %1015.9 hPa16.1 kmWest (270°)38.9 km/h51.8 km/hScattered Clouds
3:15 PM5.8 °C-7.7 °C38 %1016.3 hPa16.1 kmWSW (250°)25.9 km/h35.2 km/hMostly Cloudy
3:35 PM5.5 °C-8.5 °C36 %1015.9 hPa16.1 kmWest (260°)25.9 km/h35.2 km/hScattered Clouds
4:15 PM5.4 °C-8.8 °C36 %1016.3 hPa16.1 kmWest (280°)20.4 km/h35.2 km/hScattered Clouds
4:35 PM5.5 °C-8.4 °C36 %1015.9 hPa16.1 kmWNW (290°)22.2 km/hClear
4:55 PM5.5 °C-8.6 °C36 %1015.9 hPa16.1 kmWest (280°)27.8 km/h38.9 km/hClear
5:15 PM5.2 °C-8.7 °C36 %1015.9 hPa16.1 kmWest (270°)18.5 km/h35.2 km/hClear
5:35 PM5 °C-8.5 °C37 %1015.9 hPa16.1 kmWest (260°)11.1 km/hClear
5:55 PM4.6 °C-8.3 °C39 %1016.3 hPa16.1 kmWSW (250°)11.1 km/hClear
6:15 PM4 °C-7.8 °C42 %1015.9 hPa16.1 kmWSW (240°)9.3 km/hClear
6:35 PM3.8 °C-7.6 °C44 %1016.3 hPa16.1 kmWest (260°)9.3 km/hClear
6:55 PM4 °C-7.8 °C42 %1016.6 hPa16.1 kmWSW (250°)13 km/hClear
7:15 PM4 °C-7.6 °C43 %1016.6 hPa16.1 kmWest (270°)11.1 km/hClear
7:35 PM4 °C-7.6 °C43 %1016.9 hPa16.1 kmWest (260°)11.1 km/hClear
7:55 PM4.2 °C-7.7 °C42 %1016.3 hPa16.1 kmWSW (250°)20.4 km/h29.6 km/hClear
8:15 PM4.3 °C-7.6 °C42 %1016.3 hPa16.1 kmWest (260°)20.4 km/h29.6 km/hClear
8:35 PM4.1 °C-7.6 °C43 %1016.3 hPa16.1 kmWest (260°)16.7 km/h25.9 km/hClear
9:15 PM3 °C-7.1 °C48 %1016.6 hPa16.1 kmWSW (240°)5.6 km/hClear
9:35 PM2 °C-6.6 °C53 %1016.6 hPa16.1 kmWSW (240°)5.6 km/hClear
9:55 PM1.3 °C-6.5 °C57 %1016.9 hPa16.1 kmWest (270°)5.6 km/hClear
10:15 PM-0.7 °C-5.4 °C71 %1016.6 hPa16.1 kmSSW (210°)5.6 km/hClear
10:35 PM2.8 °C-6.9 °C49 %1016.6 hPa16.1 kmSW (230°)7.4 km/hClear
10:55 PM2.1 °C-7.1 °C51 %1016.3 hPa16.1 kmSSW (210°)7.4 km/hClear
11:15 PM3.1 °C-7.1 °C48 %1016.3 hPa16.1 kmWSW (250°)7.4 km/hClear
11:35 PM3 °C-7 °C48 %1015.9 hPa16.1 kmWest (260°)7.4 km/hClear
11:55 PM2.8 °C-7.1 °C49 %1015.9 hPa16.1 kmWest (260°)5.6 km/hClear
Hourly data recorded from KMRN, located 0 kilometers away from Mortimer, North Carolina







STORIES FROM OUR PARTNERS